Tracking 30994 objects as of 8-Jul-2025
HD Live streaming from Space Station
objects crossing your sky now

DELTA 1 DEB

Track DELTA 1 DEB now!
10-day predictions


NORAD ID: 7141
Int'l Code: 1973-086DF
Perigee: 1,492.7 km
Apogee: 1,527.7 km
Inclination: 102.1 °
Period: 116.1 minutes
Semi major axis: 7881 km
RCS: 0.0598 m2 (small)
Launch date: November 6, 1973
Source: United States (US)
Launch site: AIR FORCE WESTERN TEST RANGE (AFWTR)

Note: This is SATELLITE DEBRIS
Your satellite tracking list
Your tracking list is empty




NASA's NSSDC Master Catalog

Two Line Element Set (TLE):
1 07141U 73086DF  25187.69509127  .00000078  00000-0  91016-3 0  9994
2 07141 102.0948 236.3062 0022190 218.2584 259.6807 12.40830149332192
Source of the keplerian elements: AFSPC